SCP
-0 -0 -0 -0 -0 -0 -0 -0 -0 -0 -0 -0 -0 -0 0 0 0 0 0 -0 -0 0 0 0 0 0 0 0 0 0 0 0 0 0 -0 -0 -0 -0 -0 -0 0 0 0
-0 -0 -0 -0 0 0 0 0 -0 -0 -0 -0 0 0 0 0 0 -0 -0 -0 0 0 0 0 0 0 0 0 0 0 0 0 0 0 0 0 -0 -0 0 -0 -0 0 0
-0 -0 -0 -0 -0 -0 -0 -0 -0 -0 -0 0 0 0 -0 0 0 0 -0 -0 -0 0 0 0 0 0 0 0 0 0 0 0 0 0 0 0 0 -0 -0 0 -0 -0 -0
-0 -0 -0 -0 -0 -0 -0 -0 -0 -0 0 -0 0 0 0 -0 0 -0 -0 -0 -0 -0 0 0 0 0 0 0 0 0 0 0 0 0 0 0 0 0 -0 0 -0 -0 -0
-0 -0 -0 -0 -0 -0 -0 -0 -0 0 -0 -0 -0 -0 -0 0 -0 -0 -0 -0 -0 -0 -0 -0 0 0 0 0 0 0 0 0 0 0 -0 -0 -0 0 -0 -0 -0 -0 0
-0 0 -0 -0 -0 -0 -0 -0 -0 -0 -0 -0 -0 0 0 0 -0 -0 -0 -0 -0 -0 -0 -0 0 -0 0 0 0 0 0 0 0 0 -0 -0 0 0 0 0 0 -0 -0
-0 0 0 -0 -0 -0 -0 -0 -0 -0 -0 -0 -0 -0 0 0 0 0 0 -0 -0 -0 0 0 0 -0 -0 0 0 0 0 -0 -0 0 0 0 0 0 0 -0 -0 -0 -0
-0 -0 0 -0 -0 -0 -0 0 0 -0 -0 -0 -0 -0 0 0 0 0 0 0 0 0 0 0 0 -0 -0 0 0 0 -0 -0 -0 0 0 0 0 0 0 -0 -0 -0 -0
-0 -0 0 -0 -0 -0 -0 0 -0 -0 0 0 0 0 0 0 0 0 0 0 0 0 0 0 0 0 0 0 0 0 -0 -0 0 0 0 0 0 -0 -0 -0 -0 -0 -0
-0 -0 -0 -0 -0 0 -0 -0 -0 -0 -0 0 0 0 0 0 0 0 0 0 0 0 0 0 0 0 0 0 0 0 -0 -0 -0 0 0 0 0 -0 -0 -0 -0 -0 0
-0 -0 -0 -0 -0 -0 0 0 0 -0 0 0 0 0 0 0 0 0 0 0 0 0 -0 -0 0 0 -0 -0 -0 0 -0 0 0 0 0 0 0 -0 0 0 0 0 0
-0 -0 -0 -0 -0 -0 0 0 0 0 0 0 0 0 0 0 0 0 0 0 0 0 0 0 0 0 0 0 -0 0 0 0 0 0 0 0 0 0 0 0 0 0 0
-0 -0 -0 -0 -0 -0 0 -0 -0 -0 -0 -0 0 0 0 0 0 0 0 0 0 0 0 0 0 -0 0 0 0 0 0 0 0 0 0 0 0 0 0 0 0 0 0
0 -0 -0 0 -0 0 0 -0 -0 -0 -0 -0 0 0 0 0 0 0 0 0 0 0 0 0 0 0 0 -0 0 0 -0 -0 0 0 0 -0 0 -0 0 0 0 0 -0
0 0 0 0 0 0 0 0 0 0 0 0 0 0 0 0 0 0 0 0 0 0 0 0 0 0 0 -0 0 0 -0 0 0 0 -0 -0 -0 0 0 0 0 -0 -0
-0 -0 0 0 0 0 0 0 0 0 0 0 0 0 0 0 0 0 0 0 0 0 0 0 0 0 0 -0 0 0 0 0 0 0 -0 0 0 0 -0 -0 -0 -0 -0
-0 -0 -0 0 0 0 1 0 0 0 0 0 0 0 0 0 0 0 0 0 0 0 0 0 0 -0 0 0 0 0 0 0 0 0 0 0 0 -0 -0 -0 -0 -0 -0
-0 -0 -0 -0 0 0 0 0 0 0 0 0 0 0 0 0 0 0 0 0 0 0 0 0 0 -0 -0 0 0 0 0 0 0 -0 0 0 0 0 0 0 -0 -0 0
-0 -0 -0 -0 -0 -0 0 0 0 0 0 0 0 0 0 0 0 0 0 0 0 0 0 0 0 0 -0 -0 0 0 0 0 0 0 0 0 -0 0 0 -0 -0 -0 0
-0 -0 -0 -0 -0 -0 0 0 0 0 0 0 0 0 0 0 0 0 0 0 0 0 0 0 0 0 0 -0 -0 0 0 0 0 0 -0 0 0 0 0 0 0 0 -0
-1 -0 -0 0 -0 0 1 0 1 0 0 0 0 0 0 0 0 0 0 0 0 0 0 0 0 0 0 0 -0 0 0 0 0 0 0 0 0 0 0 0 0 0 0
-0 -0 0 0 0 1 1 0 0 0 1 0 0 1 0 0 0 0 0 0 0 0 0 0 0 0 0 0 0 0 0 0 0 0 0 0 0 0 0 0 0 0 0
0 1 1 1 0 1 1 1 1 1 0 0 0 0 0 0 0 0 0 0 0 0 0 0 0 0 0 0 0 0 0 0 0 0 0 0 0 0 0 0 0 0 0
0 1 1 2 2 1 1 1 1 1 0 1 1 1 0 0 0 0 0 0 0 0 0 0 0 0 0 0 0 0 0 0 0 0 0 0 0 0 0 0 0 0 0
1 1 2 3 2 1 1 1 1 0 0 0 1 1 0 0 0 0 0 0 0 0 0 0 0 0 0 0 0 0 0 0 0 0 0 0 0 0 0 0 0 0 0
1 2 3 3 2 1 1 1 1 0 0 1 1 1 1 0 0 0 0 0 0 0 0 0 0 0 0 0 0 0 0 0 0 0 0 0 0 0 0 0 0 0 0
Wind_Speed_500mb
31 28 23 21 22 21 21 23 24 23 23 26 27 26 26 25 25 24 23 20 17 14 11 7 5 5 7 8 12 14 13 12 13 16 17 17 19 18 14 21 20 22 23
41 32 28 26 25 23 23 27 25 24 25 25 25 25 25 26 26 26 25 24 20 18 14 11 8 7 8 9 12 17 15 14 11 12 11 16 15 14 10 12 16 22 21
31 32 29 25 25 24 26 26 25 24 23 24 25 26 26 27 29 29 29 28 26 23 21 17 14 12 11 12 15 16 16 14 15 18 11 8 15 14 13 11 15 20 21
30 32 30 27 25 26 25 24 24 23 22 24 26 26 27 28 29 30 32 31 30 29 28 24 21 18 15 18 19 19 21 17 10 12 11 5 15 12 14 14 16 19 21
35 33 30 28 27 27 24 23 23 22 22 22 24 25 26 27 29 30 29 28 27 26 22 22 21 22 23 22 22 24 22 16 7 16 27 18 15 18 17 16 19 20 19
33 30 28 28 27 25 23 23 21 20 19 21 22 23 25 28 28 28 28 28 27 26 26 25 27 28 25 23 23 22 20 10 6 12 17 22 20 17 9 8 11 14 18
31 29 26 26 27 25 23 23 20 19 19 20 21 23 26 26 26 27 26 26 25 24 24 25 24 24 24 22 16 16 10 15 23 23 20 12 12 7 3 5 9 13 17
13 26 27 28 25 22 21 21 20 18 18 20 21 22 24 26 25 25 27 26 24 22 22 24 25 23 18 15 12 18 11 11 15 15 15 20 19 11 12 12 15 15 17
16 24 27 27 25 22 20 19 17 18 18 20 20 22 26 25 29 36 32 27 25 21 20 23 25 21 16 14 24 18 17 14 18 15 23 31 27 31 32 28 23 21 20
12 19 24 24 24 22 20 19 17 17 17 18 18 16 16 19 26 33 39 32 28 26 19 19 23 29 30 31 28 17 18 18 12 13 13 19 14 12 20 23 23 28 26
14 13 15 16 20 21 19 18 16 15 15 17 16 17 15 15 21 29 28 28 30 30 22 19 22 21 18 21 19 12 11 10 7 11 12 13 14 13 15 17 16 18 19
28 22 16 12 18 25 10 14 13 13 12 13 17 14 11 12 18 18 20 21 23 26 18 17 14 15 22 6 5 5 7 6 9 12 14 11 6 2 6 14 17 18 18
29 36 25 14 13 10 8 4 9 7 6 7 8 5 9 10 10 12 15 17 18 15 13 17 13 10 14 23 8 17 4 7 16 17 11 1 3 4 13 19 19 21 19
39 47 31 19 26 14 9 6 3 7 8 14 12 7 12 4 3 7 10 10 9 4 14 19 19 8 19 29 20 12 7 9 12 17 22 10 4 5 9 10 11 12 14
42 42 45 38 32 16 14 3 3 7 3 6 14 10 7 9 5 16 12 10 10 11 6 15 15 24 14 12 17 7 4 7 8 12 20 12 5 11 15 15 15 16 17
45 43 35 33 51 29 22 21 20 19 10 12 13 9 13 15 14 12 6 3 8 6 7 15 3 10 5 6 9 11 8 8 9 13 22 16 9 8 9 12 16 18 17
45 47 46 35 40 58 40 36 33 28 16 10 24 14 22 19 19 10 6 9 11 11 15 17 14 13 5 14 3 5 19 19 28 20 12 14 11 7 9 13 15 19 21
52 43 41 32 31 47 48 41 27 28 19 17 16 21 22 20 22 11 9 11 16 14 15 16 9 18 14 12 16 7 8 13 9 14 8 9 11 12 9 9 11 15 17
52 45 41 36 32 31 41 33 32 24 27 24 17 20 21 18 15 17 17 16 18 20 16 16 10 10 21 17 12 25 16 16 16 11 11 9 9 7 4 11 8 9 12
51 44 47 38 37 35 29 32 36 26 21 25 30 23 16 20 16 20 17 19 14 14 15 14 13 13 19 16 15 24 28 23 18 23 21 22 19 14 8 8 1 6 9
48 44 43 40 38 40 39 32 34 23 14 8 9 19 17 19 19 22 22 21 10 5 13 11 19 18 25 19 27 21 35 34 28 31 30 31 27 23 21 13 12 11 10
41 47 44 42 40 43 42 30 28 19 15 10 18 18 21 23 20 23 25 20 20 16 17 22 23 30 26 27 26 24 22 36 41 40 39 41 38 32 34 29 25 23 20
45 43 48 44 45 40 42 32 31 25 27 26 22 21 17 16 14 14 15 18 25 23 26 27 32 28 29 33 33 29 19 22 17 39 58 55 49 44 45 43 41 38 33
46 44 46 49 46 45 39 36 46 35 24 25 20 18 20 18 9 8 11 13 21 24 29 28 30 29 27 34 37 43 45 43 46 33 28 62 60 55 51 54 55 52 48
43 42 43 49 49 47 44 42 44 34 34 22 27 26 21 18 10 9 13 14 14 15 16 25 33 32 33 32 47 40 36 51 52 45 38 34 57 68 62 63 61 62 61
45 43 40 48 52 49 48 52 42 34 29 36 33 28 26 18 19 17 18 18 13 19 18 20 26 39 43 44 44 53 50 49 40 49 51 47 51 54 51 65 64 66 67
Wind_Direction_500mb
155 151 146 131 123 117 108 103 101 99 94 81 72 63 57 53 51 51 51 48 47 51 61 70 85 109 122 124 124 120 112 106 90 88 89 91 94 95 82 73 71 82 86
149 149 143 138 130 120 111 110 107 100 89 79 70 62 56 53 53 54 56 58 57 58 65 73 86 101 116 120 114 114 132 122 114 81 93 87 83 99 77 65 78 84 95
141 143 140 135 123 117 113 111 106 100 89 75 65 61 58 58 56 55 53 55 59 66 69 69 81 99 110 109 109 114 123 105 79 76 66 107 75 81 92 90 92 92 93
140 142 141 133 122 116 118 115 108 97 81 70 65 63 63 63 60 55 50 47 51 64 70 70 73 79 94 108 115 117 114 108 97 67 69 104 76 93 94 95 95 97 94
142 141 137 130 127 125 122 118 109 94 80 69 66 68 70 67 63 59 55 54 58 63 71 71 73 77 86 101 111 110 110 84 46 59 91 95 64 85 96 101 101 92 100
136 139 137 135 133 127 122 117 112 99 83 73 75 76 73 66 62 61 57 56 59 66 73 75 81 83 88 100 92 96 85 38 174 130 106 83 73 76 72 103 101 105 105
140 143 137 136 133 132 131 129 114 96 86 82 82 80 73 67 62 62 58 58 61 66 73 77 80 84 95 96 77 49 49 37 132 143 125 108 91 91 94 111 112 117 118
124 146 142 141 140 134 132 126 117 108 94 88 88 82 76 68 61 57 52 50 58 64 73 77 75 75 81 95 48 37 39 82 134 110 98 79 86 99 108 122 130 131 127
133 149 148 147 145 137 138 134 124 111 104 101 98 86 76 61 55 44 39 36 46 53 66 68 68 70 71 65 59 73 88 88 127 104 94 92 94 100 101 103 116 123 129
87 143 151 152 149 146 147 141 137 122 116 109 99 101 77 59 56 45 36 37 42 49 60 67 87 75 82 83 82 69 66 78 68 85 89 111 131 132 120 110 113 116 122
143 100 119 144 155 152 152 153 151 139 128 117 105 95 82 44 44 30 28 37 47 39 62 79 78 75 80 74 65 88 17 352 335 308 137 131 120 120 116 126 139 136 143
165 180 163 111 146 133 133 164 161 152 139 132 110 88 83 28 14 17 4 26 33 24 61 72 43 53 37 46 102 15 348 0 22 86 95 93 91 106 119 131 131 125 133
177 184 174 129 200 160 121 34 164 105 150 106 90 93 58 17 359 340 350 5 23 8 13 9 26 355 44 19 190 227 199 36 58 42 27 47 309 331 114 117 126 133 131
164 184 153 145 198 208 190 295 96 36 3 12 11 36 81 10 305 314 339 354 344 34 359 357 5 79 68 54 75 73 69 50 29 24 10 343 322 59 100 106 114 138 151
170 168 168 171 169 167 190 179 217 171 255 18 256 311 209 264 270 299 321 329 357 330 355 354 350 126 89 74 71 87 166 74 37 18 4 5 58 85 105 111 117 125 134
179 187 196 202 192 171 164 170 176 183 210 211 243 273 269 274 252 294 292 319 314 313 303 306 34 158 68 188 295 257 120 89 25 15 10 13 38 71 100 119 123 125 127
197 203 209 213 204 199 187 193 201 199 215 230 229 249 275 291 302 279 241 279 276 260 280 300 264 205 83 170 234 34 266 299 298 304 358 28 37 62 96 123 123 128 131
199 203 206 208 191 201 208 208 207 197 206 233 241 238 257 291 304 288 210 268 264 260 287 292 264 226 193 168 226 259 260 293 344 319 310 6 37 41 84 103 128 140 141
205 204 208 211 206 199 205 201 183 189 214 221 233 253 271 272 292 312 256 256 270 247 260 285 266 269 219 208 220 239 251 286 301 308 284 293 322 18 63 68 86 137 149
206 213 213 214 220 215 215 205 190 210 215 234 244 247 266 280 264 274 275 287 276 260 238 269 279 256 225 221 236 249 245 272 272 280 283 278 292 280 282 273 333 139 142
213 214 222 214 221 218 219 215 203 208 202 258 252 245 263 269 268 268 269 276 252 338 259 258 267 252 237 231 256 254 245 255 259 252 261 263 268 268 254 281 253 250 236
207 215 221 221 229 220 226 225 214 209 231 249 247 248 257 251 267 268 267 261 234 207 233 246 251 252 256 229 247 260 256 241 242 248 245 248 262 258 257 252 250 242 244
208 212 219 213 239 237 226 221 199 212 212 209 228 213 246 248 254 275 266 241 235 235 237 247 243 249 253 232 224 241 241 244 222 245 239 247 249 253 257 257 255 250 244
216 220 224 224 228 234 230 225 210 213 228 230 243 229 225 264 281 15 10 290 244 247 244 259 249 255 260 249 226 231 242 255 269 268 258 244 248 251 251 255 253 251 248
209 217 223 228 231 229 225 220 212 214 203 212 205 223 246 267 250 311 324 334 342 300 277 257 255 250 258 264 238 237 241 249 258 259 259 244 238 247 250 249 254 253 248
206 217 225 226 229 232 226 216 204 204 201 213 209 230 245 244 266 271 291 295 311 321 304 291 270 255 252 255 255 253 251 251 255 258 255 261 251 249 247 248 247 245 250
Wind_Speed_850mb
31 28 23 21 22 21 21 23 24 23 23 26 27 26 26 25 25 24 23 20 17 14 11 7 5 5 7 8 12 14 13 12 13 16 17 17 19 18 14 21 20 22 23
41 32 28 26 25 23 23 27 25 24 25 25 25 25 25 26 26 26 25 24 20 18 14 11 8 7 8 9 12 17 15 14 11 12 11 16 15 14 10 12 16 22 21
31 32 29 25 25 24 26 26 25 24 23 24 25 26 26 27 29 29 29 28 26 23 21 17 14 12 11 12 15 16 16 14 15 18 11 8 15 14 13 11 15 20 21
30 32 30 27 25 26 25 24 24 23 22 24 26 26 27 28 29 30 32 31 30 29 28 24 21 18 15 18 19 19 21 17 10 12 11 5 15 12 14 14 16 19 21
35 33 30 28 27 27 24 23 23 22 22 22 24 25 26 27 29 30 29 28 27 26 22 22 21 22 23 22 22 24 22 16 7 16 27 18 15 18 17 16 19 20 19
33 30 28 28 27 25 23 23 21 20 19 21 22 23 25 28 28 28 28 28 27 26 26 25 27 28 25 23 23 22 20 10 6 12 17 22 20 17 9 8 11 14 18
31 29 26 26 27 25 23 23 20 19 19 20 21 23 26 26 26 27 26 26 25 24 24 25 24 24 24 22 16 16 10 15 23 23 20 12 12 7 3 5 9 13 17
13 26 27 28 25 22 21 21 20 18 18 20 21 22 24 26 25 25 27 26 24 22 22 24 25 23 18 15 12 18 11 11 15 15 15 20 19 11 12 12 15 15 17
16 24 27 27 25 22 20 19 17 18 18 20 20 22 26 25 29 36 32 27 25 21 20 23 25 21 16 14 24 18 17 14 18 15 23 31 27 31 32 28 23 21 20
12 19 24 24 24 22 20 19 17 17 17 18 18 16 16 19 26 33 39 32 28 26 19 19 23 29 30 31 28 17 18 18 12 13 13 19 14 12 20 23 23 28 26
14 13 15 16 20 21 19 18 16 15 15 17 16 17 15 15 21 29 28 28 30 30 22 19 22 21 18 21 19 12 11 10 7 11 12 13 14 13 15 17 16 18 19
28 22 16 12 18 25 10 14 13 13 12 13 17 14 11 12 18 18 20 21 23 26 18 17 14 15 22 6 5 5 7 6 9 12 14 11 6 2 6 14 17 18 18
29 36 25 14 13 10 8 4 9 7 6 7 8 5 9 10 10 12 15 17 18 15 13 17 13 10 14 23 8 17 4 7 16 17 11 1 3 4 13 19 19 21 19
39 47 31 19 26 14 9 6 3 7 8 14 12 7 12 4 3 7 10 10 9 4 14 19 19 8 19 29 20 12 7 9 12 17 22 10 4 5 9 10 11 12 14
42 42 45 38 32 16 14 3 3 7 3 6 14 10 7 9 5 16 12 10 10 11 6 15 15 24 14 12 17 7 4 7 8 12 20 12 5 11 15 15 15 16 17
45 43 35 33 51 29 22 21 20 19 10 12 13 9 13 15 14 12 6 3 8 6 7 15 3 10 5 6 9 11 8 8 9 13 22 16 9 8 9 12 16 18 17
45 47 46 35 40 58 40 36 33 28 16 10 24 14 22 19 19 10 6 9 11 11 15 17 14 13 5 14 3 5 19 19 28 20 12 14 11 7 9 13 15 19 21
52 43 41 32 31 47 48 41 27 28 19 17 16 21 22 20 22 11 9 11 16 14 15 16 9 18 14 12 16 7 8 13 9 14 8 9 11 12 9 9 11 15 17
52 45 41 36 32 31 41 33 32 24 27 24 17 20 21 18 15 17 17 16 18 20 16 16 10 10 21 17 12 25 16 16 16 11 11 9 9 7 4 11 8 9 12
51 44 47 38 37 35 29 32 36 26 21 25 30 23 16 20 16 20 17 19 14 14 15 14 13 13 19 16 15 24 28 23 18 23 21 22 19 14 8 8 1 6 9
48 44 43 40 38 40 39 32 34 23 14 8 9 19 17 19 19 22 22 21 10 5 13 11 19 18 25 19 27 21 35 34 28 31 30 31 27 23 21 13 12 11 10
41 47 44 42 40 43 42 30 28 19 15 10 18 18 21 23 20 23 25 20 20 16 17 22 23 30 26 27 26 24 22 36 41 40 39 41 38 32 34 29 25 23 20
45 43 48 44 45 40 42 32 31 25 27 26 22 21 17 16 14 14 15 18 25 23 26 27 32 28 29 33 33 29 19 22 17 39 58 55 49 44 45 43 41 38 33
46 44 46 49 46 45 39 36 46 35 24 25 20 18 20 18 9 8 11 13 21 24 29 28 30 29 27 34 37 43 45 43 46 33 28 62 60 55 51 54 55 52 48
43 42 43 49 49 47 44 42 44 34 34 22 27 26 21 18 10 9 13 14 14 15 16 25 33 32 33 32 47 40 36 51 52 45 38 34 57 68 62 63 61 62 61
45 43 40 48 52 49 48 52 42 34 29 36 33 28 26 18 19 17 18 18 13 19 18 20 26 39 43 44 44 53 50 49 40 49 51 47 51 54 51 65 64 66 67
Wind_Direction_850mb
155 151 146 131 123 117 108 103 101 99 94 81 72 63 57 53 51 51 51 48 47 51 61 70 85 109 122 124 124 120 112 106 90 88 89 91 94 95 82 73 71 82 86
149 149 143 138 130 120 111 110 107 100 89 79 70 62 56 53 53 54 56 58 57 58 65 73 86 101 116 120 114 114 132 122 114 81 93 87 83 99 77 65 78 84 95
141 143 140 135 123 117 113 111 106 100 89 75 65 61 58 58 56 55 53 55 59 66 69 69 81 99 110 109 109 114 123 105 79 76 66 107 75 81 92 90 92 92 93
140 142 141 133 122 116 118 115 108 97 81 70 65 63 63 63 60 55 50 47 51 64 70 70 73 79 94 108 115 117 114 108 97 67 69 104 76 93 94 95 95 97 94
142 141 137 130 127 125 122 118 109 94 80 69 66 68 70 67 63 59 55 54 58 63 71 71 73 77 86 101 111 110 110 84 46 59 91 95 64 85 96 101 101 92 100
136 139 137 135 133 127 122 117 112 99 83 73 75 76 73 66 62 61 57 56 59 66 73 75 81 83 88 100 92 96 85 38 174 130 106 83 73 76 72 103 101 105 105
140 143 137 136 133 132 131 129 114 96 86 82 82 80 73 67 62 62 58 58 61 66 73 77 80 84 95 96 77 49 49 37 132 143 125 108 91 91 94 111 112 117 118
124 146 142 141 140 134 132 126 117 108 94 88 88 82 76 68 61 57 52 50 58 64 73 77 75 75 81 95 48 37 39 82 134 110 98 79 86 99 108 122 130 131 127
133 149 148 147 145 137 138 134 124 111 104 101 98 86 76 61 55 44 39 36 46 53 66 68 68 70 71 65 59 73 88 88 127 104 94 92 94 100 101 103 116 123 129
87 143 151 152 149 146 147 141 137 122 116 109 99 101 77 59 56 45 36 37 42 49 60 67 87 75 82 83 82 69 66 78 68 85 89 111 131 132 120 110 113 116 122
143 100 119 144 155 152 152 153 151 139 128 117 105 95 82 44 44 30 28 37 47 39 62 79 78 75 80 74 65 88 17 352 335 308 137 131 120 120 116 126 139 136 143
165 180 163 111 146 133 133 164 161 152 139 132 110 88 83 28 14 17 4 26 33 24 61 72 43 53 37 46 102 15 348 0 22 86 95 93 91 106 119 131 131 125 133
177 184 174 129 200 160 121 34 164 105 150 106 90 93 58 17 359 340 350 5 23 8 13 9 26 355 44 19 190 227 199 36 58 42 27 47 309 331 114 117 126 133 131
164 184 153 145 198 208 190 295 96 36 3 12 11 36 81 10 305 314 339 354 344 34 359 357 5 79 68 54 75 73 69 50 29 24 10 343 322 59 100 106 114 138 151
170 168 168 171 169 167 190 179 217 171 255 18 256 311 209 264 270 299 321 329 357 330 355 354 350 126 89 74 71 87 166 74 37 18 4 5 58 85 105 111 117 125 134
179 187 196 202 192 171 164 170 176 183 210 211 243 273 269 274 252 294 292 319 314 313 303 306 34 158 68 188 295 257 120 89 25 15 10 13 38 71 100 119 123 125 127
197 203 209 213 204 199 187 193 201 199 215 230 229 249 275 291 302 279 241 279 276 260 280 300 264 205 83 170 234 34 266 299 298 304 358 28 37 62 96 123 123 128 131
199 203 206 208 191 201 208 208 207 197 206 233 241 238 257 291 304 288 210 268 264 260 287 292 264 226 193 168 226 259 260 293 344 319 310 6 37 41 84 103 128 140 141
205 204 208 211 206 199 205 201 183 189 214 221 233 253 271 272 292 312 256 256 270 247 260 285 266 269 219 208 220 239 251 286 301 308 284 293 322 18 63 68 86 137 149
206 213 213 214 220 215 215 205 190 210 215 234 244 247 266 280 264 274 275 287 276 260 238 269 279 256 225 221 236 249 245 272 272 280 283 278 292 280 282 273 333 139 142
213 214 222 214 221 218 219 215 203 208 202 258 252 245 263 269 268 268 269 276 252 338 259 258 267 252 237 231 256 254 245 255 259 252 261 263 268 268 254 281 253 250 236
207 215 221 221 229 220 226 225 214 209 231 249 247 248 257 251 267 268 267 261 234 207 233 246 251 252 256 229 247 260 256 241 242 248 245 248 262 258 257 252 250 242 244
208 212 219 213 239 237 226 221 199 212 212 209 228 213 246 248 254 275 266 241 235 235 237 247 243 249 253 232 224 241 241 244 222 245 239 247 249 253 257 257 255 250 244
216 220 224 224 228 234 230 225 210 213 228 230 243 229 225 264 281 15 10 290 244 247 244 259 249 255 260 249 226 231 242 255 269 268 258 244 248 251 251 255 253 251 248
209 217 223 228 231 229 225 220 212 214 203 212 205 223 246 267 250 311 324 334 342 300 277 257 255 250 258 264 238 237 241 249 258 259 259 244 238 247 250 249 254 253 248
206 217 225 226 229 232 226 216 204 204 201 213 209 230 245 244 266 271 291 295 311 321 304 291 270 255 252 255 255 253 251 251 255 258 255 261 251 249 247 248 247 245 250